[[{"header":{"parameterUnit":"m.s-1","parameterCategory":1,"la1":30.2992,"la2":30.254,"lo1":-89.0895,"lo2":-89.0443,"dy":0.0025,"dx":0.0025,"nx":19,"ny":19,"refTime":"2026-05-04T09:00:00:Z","depth":0,"parameterNumber":2,"parameterNumberName":"U-component_of_WINDS"},"data":[0,0,0,-0.3095,-0.3095,-0.307,-0.307,-0.3037,-0.3036,0,0,0,0,0,0,0,0,0,0,0,-0.3102,-0.3101,-0.3096,-0.3095,-0.307,-0.307,-0.3037,-0.3036,0,0,0,0,0,0,0,0,0,0,0,-0.3102,-0.3101,-0.3101,-0.3095,-0.307,-0.307,-0.3037,-0.3056,0,0,0,0,0,0,0,0,0,0,-0.3081,-0.3085,-0.3102,-0.3101,-0.3095,-0.307,-0.307,-0.3057,-0.3055,-0.3048,0,-0.304,0,-0.3038,-0.3034,-0.3034,0,0,0,-0.3096,-0.3087,-0.3081,-0.3101,-0.3094,-0.307,-0.3081,-0.3056,-0.3054,-0.3045,-0.304,-0.3038,-0.3037,-0.3034,-0.3034,-0.2987,-0.2987,0,0,-0.3097,-0.3096,-0.3083,-0.308,-0.3083,-0.3082,-0.3081,-0.3055,-0.3049,-0.3039,-0.3038,-0.3037,-0.3034,-0.3033,-0.2987,-0.2987,0,0,0,-0.31,-0.3097,-0.3092,-0.3081,-0.3077,-0.3081,-0.308,-0.305,-0.3049,-0.3037,-0.3036,-0.3034,-0.3033,-0.2988,-0.2987,-0.2974,0,0,0,-0.3101,-0.3099,-0.3093,-0.3092,-0.3077,-0.3063,-0.3076,-0.3051,-0.3048,-0.3036,-0.3033,-0.3033,-0.2988,-0.2987,-0.2975,-0.2967,0,0,0,-0.3104,-0.31,-0.3096,-0.3092,-0.3082,-0.3063,-0.306,-0.305,-0.3047,-0.3034,-0.3033,-0.2988,-0.2987,-0.2976,-0.2969,-0.2955,0,0,0,-0.3106,-0.3083,-0.3095,-0.307,-0.3082,-0.3055,-0.3061,-0.3041,-0.3028,-0.3033,-0.2988,-0.2987,-0.2976,-0.297,-0.2956,-0.2944,-0.2938,0,0,-0.3077,-0.308,-0.3065,-0.3075,-0.3046,-0.3059,-0.3028,-0.3017,-0.3017,-0.2997,-0.2996,-0.2974,-0.2969,-0.2955,-0.2909,-0.2905,0,0,0,-0.3056,-0.3045,-0.3038,-0.3026,-0.3017,-0.3009,-0.3003,-0.2999,-0.2983,-0.3006,-0.2966,-0.2963,-0.2955,-0.2949,-0.2945,-0.2939,-0.2984,-0.2984,-0.2985,-0.3014,-0.3015,-0.2991,-0.2989,-0.2977,-0.2972,-0.2963,-0.2957,-0.2961,-0.2951,-0.2945,-0.2917,-0.291,-0.2907,-0.2901,-0.2939,-0.2939,-0.2939,-0.2939,-0.2972,-0.2957,-0.2964,-0.2943,-0.2945,-0.2927,-0.2922,-0.2925,-0.291,-0.2921,-0.2914,-0.2927,-0.2903,-0.2897,-0.2938,-0.2938,-0.2938,-0.2938,-0.2938,-0.2945,-0.2938,-0.2934,-0.2918,-0.2905,-0.2905,-0.289,-0.2891,-0.2893,-0.2886,-0.2881,-0.2881,-0.2882,-0.2884,-0.2883,-0.2883,-0.2883,-0.2883,-0.2883,-0.2918,-0.2914,-0.2901,-0.2891,-0.2884,-0.2875,-0.2871,-0.2864,-0.2858,-0.286,-0.286,-0.2866,-0.29,-0.2909,-0.2882,-0.2882,-0.2882,-0.2882,-0.2882,-0.2875,-0.2886,-0.2865,-0.2859,-0.2848,-0.2836,-0.2839,-0.2826,-0.2821,-0.2813,-0.2821,-0.2846,-0.2849,-0.2852,-0.2859,-0.282,-0.282,-0.282,-0.282,-0.2852,-0.2854,-0.2835,-0.2824,-0.2814,-0.2815,-0.2793,-0.279,-0.2788,-0.2785,-0.2791,-0.2801,-0.2804,-0.2805,-0.2809,-0.2816,-0.2767,-0.2767,-0.2767,-0.2827,-0.2828,-0.2809,-0.2807,-0.2799,-0.2792,-0.2772,-0.276,-0.276,-0.2765,-0.2783,-0.2785,-0.2801,-0.2807,-0.2811,-0.2817,-0.283,0,0]},{"header":{"parameterUnit":"m.s-1","parameterCategory":1,"la1":30.2992,"la2":30.254,"lo1":-89.0895,"lo2":-89.0443,"dy":0.0025,"dx":0.0025,"nx":19,"ny":19,"refTime":"2026-05-04T09:00:00:Z","depth":0,"parameterNumber":3,"parameterNumberName":"V-component_of_WINDS"},"data":[0,0,0,7.1605,7.1606,7.1638,7.1638,7.1687,7.1688,0,0,0,0,0,0,0,0,0,0,0,7.1602,7.1603,7.1605,7.1606,7.1638,7.1638,7.1687,7.1688,0,0,0,0,0,0,0,0,0,0,0,7.1602,7.1603,7.1603,7.1607,7.1638,7.1638,7.1687,7.166,0,0,0,0,0,0,0,0,0,0,7.1627,7.1631,7.1603,7.1603,7.1607,7.1638,7.1638,7.1658,7.1662,7.1677,0,7.1693,0,7.1692,7.1692,7.1692,0,0,0,7.1601,7.1628,7.1631,7.1603,7.1607,7.1638,7.1622,7.166,7.1664,7.1681,7.1694,7.1695,7.1692,7.1692,7.1693,7.18,7.1801,0,0,7.16,7.1611,7.1629,7.1634,7.1631,7.1621,7.1623,7.1662,7.1676,7.1694,7.1696,7.1693,7.1693,7.1693,7.1799,7.18,0,0,0,7.1598,7.161,7.1612,7.1632,7.1637,7.1622,7.1625,7.1674,7.1674,7.1697,7.1694,7.1693,7.1694,7.1799,7.18,7.1847,0,0,0,7.1597,7.1609,7.1611,7.1619,7.1637,7.1657,7.1637,7.1672,7.1676,7.1694,7.1693,7.1694,7.1798,7.1799,7.1844,7.1867,0,0,0,7.1598,7.1609,7.1616,7.1619,7.1633,7.1656,7.1657,7.1672,7.1674,7.1692,7.1694,7.1797,7.1799,7.1841,7.1862,7.1898,0,0,0,7.1602,7.1657,7.1617,7.1677,7.1633,7.1685,7.1657,7.1695,7.1716,7.1693,7.1798,7.18,7.184,7.186,7.1895,7.193,7.1946,0,0,7.1678,7.1667,7.1701,7.1666,7.1728,7.1679,7.1748,7.1756,7.1747,7.1783,7.1785,7.1845,7.1862,7.1898,7.2031,7.2044,0,0,0,7.1729,7.1753,7.1767,7.1789,7.1797,7.1806,7.1803,7.1806,7.1835,7.1768,7.1867,7.1877,7.1898,7.1914,7.1924,7.1941,7.1808,7.1808,7.1807,7.1851,7.1837,7.1893,7.1883,7.1904,7.19,7.1916,7.1919,7.1898,7.1922,7.1932,7.2015,7.2034,7.2042,7.2059,7.195,7.195,7.195,7.1951,7.1959,7.1992,7.1964,7.2008,7.1993,7.2029,7.2028,7.2012,7.2043,7.2006,7.2023,7.1984,7.2056,7.2071,7.1954,7.1953,7.1953,7.1953,7.1952,7.2037,7.205,7.2054,7.2083,7.2107,7.2095,7.2126,7.2111,7.2097,7.2115,7.2123,7.2122,7.2119,7.212,7.212,7.2121,7.2121,7.2121,7.2121,7.2116,7.2118,7.2147,7.2161,7.2173,7.2186,7.2183,7.2194,7.2202,7.2188,7.2188,7.2165,7.2067,7.2042,7.2126,7.2125,7.2124,7.2124,7.2123,7.2229,7.2201,7.2246,7.2258,7.2272,7.2297,7.2278,7.2301,7.2308,7.2324,7.2297,7.2227,7.2214,7.2206,7.2185,7.2301,7.2301,7.2301,7.2301,7.2294,7.2287,7.2329,7.2348,7.2366,7.2354,7.2403,7.2402,7.2396,7.2399,7.238,7.2351,7.2343,7.2335,7.2324,7.2304,7.2448,7.2448,7.2448,7.2363,7.2356,7.2402,7.2396,7.2407,7.2416,7.2462,7.2485,7.2473,7.2453,7.2401,7.2394,7.2348,7.2334,7.2313,7.2295,7.2259,0,0]}]]